Time,TemperatureF,DewpointF,PressureIn,WindDirection,WindDirectionDegrees,WindSpeedMPH,WindSpeedGustMPH,Humidity,HourlyPrecipIn,Conditions,Clouds,dailyrainin,SoftwareType,DateUTC
2013-05-16 00:01:00,65.5,52.3,29.85,NW,315,0.0,0.0,62,0.00,,BKN140,0.00,VWS V14.01,2013-05-16 04:01:00,
2013-05-16 00:06:00,65.1,52.0,29.85,NW,315,0.0,0.0,62,0.00,,BKN140,0.00,VWS V14.01,2013-05-16 04:06:00,
2013-05-16 00:11:00,64.6,51.5,29.85,NW,315,0.0,0.0,62,0.00,,BKN140,0.00,VWS V14.01,2013-05-16 04:11:00,
2013-05-16 00:16:00,64.2,51.4,29.85,NW,315,0.0,0.0,63,0.00,,BKN140,0.00,VWS V14.01,2013-05-16 04:16:00,
2013-05-16 00:21:00,63.7,50.9,29.85,NW,315,0.0,0.0,63,0.00,,BKN140,0.00,VWS V14.01,2013-05-16 04:21:00,
2013-05-16 00:26:00,63.3,50.5,29.85,South,180,0.0,0.0,63,0.00,,BKN140,0.00,VWS V14.01,2013-05-16 04:26:00,
2013-05-16 00:31:00,63.0,50.2,29.85,South,180,0.0,0.0,63,0.00,,BKN140,0.00,VWS V14.01,2013-05-16 04:31:00,
2013-05-16 00:36:00,62.6,49.8,29.85,South,180,0.0,0.0,63,0.00,,BKN140,0.00,VWS V14.01,2013-05-16 04:36:00,
2013-05-16 00:41:00,62.1,49.3,29.82,South,180,0.0,0.0,63,0.00,,BKN140,0.00,VWS V14.01,2013-05-16 04:41:00,
2013-05-16 00:46:00,61.5,48.8,29.82,South,180,0.0,0.0,63,0.00,,BKN140,0.00,VWS V14.01,2013-05-16 04:46:00,
2013-05-16 00:51:00,61.2,48.5,29.82,South,180,0.0,0.0,63,0.00,,BKN140,0.00,VWS V14.01,2013-05-16 04:51:00,
2013-05-16 00:56:00,60.6,48.2,29.85,South,180,0.0,0.0,64,0.00,,BKN140,0.00,VWS V14.01,2013-05-16 04:56:00,
2013-05-16 01:01:00,60.3,47.8,29.85,South,180,0.0,0.0,64,0.00,,CLR,0.00,VWS V14.01,2013-05-16 05:01:00,
2013-05-16 01:06:00,59.7,47.3,29.85,South,180,0.0,0.0,64,0.00,,CLR,0.00,VWS V14.01,2013-05-16 05:06:00,
2013-05-16 01:12:00,59.5,47.2,29.85,South,180,0.0,0.0,64,0.00,,CLR,0.00,VWS V14.01,2013-05-16 05:12:00,
2013-05-16 01:17:00,58.8,46.5,29.85,South,180,0.0,0.0,64,0.00,,CLR,0.00,VWS V14.01,2013-05-16 05:17:00,
2013-05-16 01:22:00,58.5,46.1,29.85,South,180,0.0,0.0,64,0.00,,CLR,0.00,VWS V14.01,2013-05-16 05:22:00,
2013-05-16 01:27:00,58.1,45.8,29.85,South,180,0.0,0.0,64,0.00,,CLR,0.00,VWS V14.01,2013-05-16 05:27:00,
2013-05-16 01:32:00,57.7,45.5,29.85,South,180,0.0,0.0,64,0.00,,CLR,0.00,VWS V14.01,2013-05-16 05:32:00,
2013-05-16 01:37:00,57.4,45.1,29.85,South,180,0.0,0.0,64,0.00,,CLR,0.00,VWS V14.01,2013-05-16 05:37:00,
2013-05-16 01:42:00,57.0,44.8,29.85,South,180,0.0,0.0,64,0.00,,CLR,0.00,VWS V14.01,2013-05-16 05:42:00,
2013-05-16 01:47:00,56.8,44.6,29.85,South,180,0.0,0.0,64,0.00,,CLR,0.00,VWS V14.01,2013-05-16 05:47:00,
2013-05-16 01:52:00,56.5,44.3,29.85,South,180,0.0,0.0,64,0.00,,CLR,0.00,VWS V14.01,2013-05-16 05:52:00,
2013-05-16 01:57:00,56.1,43.9,29.85,South,180,0.0,0.0,64,0.00,,CLR,0.00,VWS V14.01,2013-05-16 05:57:00,
2013-05-16 02:02:00,55.9,44.4,29.85,South,180,0.0,0.0,65,0.00,,CLR,0.00,VWS V14.01,2013-05-16 06:02:00,
2013-05-16 02:07:00,55.6,44.0,29.85,South,180,0.0,0.0,65,0.00,,CLR,0.00,VWS V14.01,2013-05-16 06:07:00,
2013-05-16 02:12:00,55.4,43.8,29.85,South,180,0.0,0.0,65,0.00,,CLR,0.00,VWS V14.01,2013-05-16 06:12:00,
2013-05-16 02:17:00,55.0,44.1,29.85,South,180,0.0,0.0,66,0.00,,CLR,0.00,VWS V14.01,2013-05-16 06:17:00,
2013-05-16 02:22:00,54.7,43.8,29.85,South,180,0.0,0.0,66,0.00,,CLR,0.00,VWS V14.01,2013-05-16 06:22:00,
2013-05-16 02:27:00,54.3,43.4,29.85,South,180,0.0,0.0,66,0.00,,CLR,0.00,VWS V14.01,2013-05-16 06:27:00,
2013-05-16 02:32:00,54.1,43.2,29.85,South,180,0.0,0.0,66,0.00,,CLR,0.00,VWS V14.01,2013-05-16 06:32:00,
2013-05-16 02:37:00,54.0,43.5,29.85,South,180,0.0,0.0,68,0.00,,CLR,0.00,VWS V14.01,2013-05-16 06:37:00,
2013-05-16 02:42:00,53.8,43.5,29.85,South,180,0.0,0.0,68,0.00,,CLR,0.00,VWS V14.01,2013-05-16 06:42:00,
2013-05-16 02:47:00,53.6,43.3,29.85,South,180,0.0,0.0,68,0.00,,CLR,0.00,VWS V14.01,2013-05-16 06:47:00,
2013-05-16 02:52:00,53.2,43.2,29.85,South,180,0.0,0.0,68,0.00,,CLR,0.00,VWS V14.01,2013-05-16 06:52:00,
2013-05-16 02:57:00,53.1,43.0,29.85,South,180,0.0,0.0,68,0.00,,CLR,0.00,VWS V14.01,2013-05-16 06:57:00,
2013-05-16 03:02:00,52.9,42.8,29.85,South,180,0.0,0.0,68,0.00,,CLR,0.00,VWS V14.01,2013-05-16 07:02:00,
2013-05-16 03:07:00,52.7,42.6,29.85,South,180,0.0,0.0,68,0.00,,CLR,0.00,VWS V14.01,2013-05-16 07:07:00,
2013-05-16 03:12:00,52.5,42.7,29.85,South,180,0.0,0.0,69,0.00,,CLR,0.00,VWS V14.01,2013-05-16 07:12:00,
2013-05-16 03:17:00,52.3,42.5,29.85,South,180,0.0,0.0,69,0.00,,CLR,0.00,VWS V14.01,2013-05-16 07:17:00,
2013-05-16 03:22:00,52.2,42.3,29.85,South,180,0.0,0.0,69,0.00,,CLR,0.00,VWS V14.01,2013-05-16 07:22:00,
2013-05-16 03:27:00,52.0,42.3,29.85,South,180,0.0,0.0,70,0.00,,CLR,0.00,VWS V14.01,2013-05-16 07:27:00,
2013-05-16 03:32:00,51.8,42.2,29.85,South,180,0.0,0.0,70,0.00,,CLR,0.00,VWS V14.01,2013-05-16 07:32:00,
2013-05-16 03:37:00,51.6,42.0,29.85,South,180,0.0,0.0,70,0.00,,CLR,0.00,VWS V14.01,2013-05-16 07:37:00,
2013-05-16 03:42:00,51.4,41.8,29.85,South,180,0.0,0.0,70,0.00,,CLR,0.00,VWS V14.01,2013-05-16 07:42:00,
2013-05-16 03:47:00,51.3,41.6,29.85,South,180,0.0,0.0,70,0.00,,CLR,0.00,VWS V14.01,2013-05-16 07:47:00,
2013-05-16 04:02:00,50.5,41.1,29.85,South,180,0.0,0.0,70,0.00,,CLR,0.00,VWS V14.01,2013-05-16 08:02:00,
2013-05-16 04:07:00,50.4,41.0,29.85,South,180,0.0,0.0,70,0.00,,CLR,0.00,VWS V14.01,2013-05-16 08:07:00,
2013-05-16 04:12:00,50.2,40.8,29.85,South,180,0.0,0.0,70,0.00,,CLR,0.00,VWS V14.01,2013-05-16 08:12:00,
2013-05-16 04:17:00,50.2,41.0,29.85,South,180,0.0,0.0,70,0.00,,CLR,0.00,VWS V14.01,2013-05-16 08:17:00,
2013-05-16 04:22:00,49.8,40.8,29.85,South,180,0.0,0.0,71,0.00,,CLR,0.00,VWS V14.01,2013-05-16 08:22:00,
2013-05-16 04:27:00,49.6,40.6,29.85,South,180,0.0,0.0,71,0.00,,CLR,0.00,VWS V14.01,2013-05-16 08:27:00,
2013-05-16 04:32:00,49.5,40.6,29.85,South,180,0.0,0.0,72,0.00,,CLR,0.00,VWS V14.01,2013-05-16 08:32:00,
2013-05-16 04:37:00,49.5,40.6,29.85,South,180,0.0,0.0,72,0.00,,CLR,0.00,VWS V14.01,2013-05-16 08:37:00,
2013-05-16 04:42:00,49.3,40.7,29.85,South,180,0.0,0.0,72,0.00,,CLR,0.00,VWS V14.01,2013-05-16 08:42:00,
2013-05-16 04:47:00,49.1,40.7,29.85,South,180,0.0,0.0,72,0.00,,CLR,0.00,VWS V14.01,2013-05-16 08:47:00,
2013-05-16 04:52:00,48.9,40.5,29.85,South,180,0.0,0.0,72,0.00,,CLR,0.00,VWS V14.01,2013-05-16 08:52:00,
2013-05-16 04:57:00,48.7,40.5,29.85,South,180,0.0,0.0,73,0.00,,CLR,0.00,VWS V14.01,2013-05-16 08:57:00,
2013-05-16 05:02:00,48.7,40.5,29.85,South,180,0.0,0.0,73,0.00,,CLR,0.00,VWS V14.01,2013-05-16 09:02:00,
2013-05-16 05:07:00,48.6,40.3,29.85,South,180,0.0,0.0,73,0.00,,CLR,0.00,VWS V14.01,2013-05-16 09:07:00,
2013-05-16 05:12:00,48.4,40.1,29.85,South,180,0.0,0.0,73,0.00,,CLR,0.00,VWS V14.01,2013-05-16 09:12:00,
2013-05-16 05:17:00,48.2,40.1,29.85,South,180,0.0,0.0,74,0.00,,CLR,0.00,VWS V14.01,2013-05-16 09:17:00,
2013-05-16 05:22:00,48.2,40.1,29.85,South,180,0.0,0.0,74,0.00,,CLR,0.00,VWS V14.01,2013-05-16 09:22:00,
2013-05-16 05:27:00,48.0,40.1,29.85,South,180,0.0,0.0,74,0.00,,CLR,0.00,VWS V14.01,2013-05-16 09:27:00,
2013-05-16 05:32:00,48.0,40.1,29.85,South,180,0.0,0.0,74,0.00,,CLR,0.00,VWS V14.01,2013-05-16 09:32:00,
2013-05-16 05:37:00,48.0,40.1,29.85,South,180,0.0,0.0,74,0.00,,CLR,0.00,VWS V14.01,2013-05-16 09:37:00,
2013-05-16 05:42:00,47.8,40.0,29.85,South,180,0.0,0.0,74,0.00,,CLR,0.00,VWS V14.01,2013-05-16 09:42:00,
2013-05-16 05:47:00,47.8,40.0,29.85,South,180,0.0,0.0,74,0.00,,CLR,0.00,VWS V14.01,2013-05-16 09:47:00,
2013-05-16 05:53:00,47.7,39.8,29.88,South,180,0.0,0.0,74,0.00,,CLR,0.00,VWS V14.01,2013-05-16 09:53:00,
2013-05-16 05:58:00,47.7,40.0,29.88,South,180,0.0,0.0,74,0.00,,CLR,0.00,VWS V14.01,2013-05-16 09:58:00,
2013-05-16 06:03:00,47.5,39.8,29.88,South,180,0.0,0.0,74,0.00,,SCT160,0.00,VWS V14.01,2013-05-16 10:03:00,
2013-05-16 06:08:00,47.5,39.8,29.88,South,180,0.0,0.0,74,0.00,,SCT160,0.00,VWS V14.01,2013-05-16 10:08:00,
2013-05-16 06:13:00,47.5,39.8,29.88,South,180,0.0,0.0,74,0.00,,SCT160,0.00,VWS V14.01,2013-05-16 10:13:00,
2013-05-16 06:18:00,47.5,39.8,29.88,South,180,0.0,0.0,74,0.00,,SCT160,0.00,VWS V14.01,2013-05-16 10:18:00,
2013-05-16 06:23:00,47.5,39.8,29.88,South,180,0.0,0.0,74,0.00,,SCT160,0.00,VWS V14.01,2013-05-16 10:23:00,
2013-05-16 06:28:00,47.5,39.8,29.88,South,180,0.0,0.0,74,0.00,,SCT160,0.00,VWS V14.01,2013-05-16 10:28:00,
2013-05-16 06:33:00,47.5,39.8,29.88,South,180,0.0,0.0,74,0.00,,SCT160,0.00,VWS V14.01,2013-05-16 10:33:00,
2013-05-16 06:38:00,47.5,40.0,29.88,South,180,0.0,0.0,75,0.00,,SCT160,0.00,VWS V14.01,2013-05-16 10:38:00,
2013-05-16 06:43:00,47.7,40.1,29.88,South,180,0.0,0.0,75,0.00,,SCT160,0.00,VWS V14.01,2013-05-16 10:43:00,
2013-05-16 06:48:00,47.7,40.1,29.88,South,180,0.0,0.0,75,0.00,,SCT160,0.00,VWS V14.01,2013-05-16 10:48:00,
2013-05-16 06:53:00,47.7,40.1,29.88,South,180,0.0,0.0,75,0.00,,SCT160,0.00,VWS V14.01,2013-05-16 10:53:00,
2013-05-16 06:58:00,47.8,40.5,29.88,West,270,2.2,2.2,76,0.00,,FEW100,0.00,VWS V14.01,2013-05-16 10:58:00,
2013-05-16 07:03:00,48.4,41.3,29.88,WNW,292,0.0,0.0,76,0.00,,FEW100,0.00,VWS V14.01,2013-05-16 11:03:00,
2013-05-16 07:08:00,48.6,41.5,29.91,WNW,292,0.0,0.0,76,0.00,,FEW100,0.00,VWS V14.01,2013-05-16 11:08:00,
2013-05-16 07:13:00,48.9,42.0,29.91,WNW,292,0.0,0.0,77,0.00,,FEW100,0.00,VWS V14.01,2013-05-16 11:13:00,
2013-05-16 07:18:00,49.1,42.2,29.91,SW,225,0.0,0.0,77,0.00,,FEW100,0.00,VWS V14.01,2013-05-16 11:18:00,
2013-05-16 07:23:00,49.5,42.6,29.91,SW,225,0.0,0.0,77,0.00,,FEW100,0.00,VWS V14.01,2013-05-16 11:23:00,
2013-05-16 07:28:00,49.8,43.1,29.91,SW,225,0.0,0.0,78,0.00,,FEW100,0.00,VWS V14.01,2013-05-16 11:28:00,
2013-05-16 07:33:00,50.4,43.6,29.91,SW,225,0.0,0.0,78,0.00,,FEW100,0.00,VWS V14.01,2013-05-16 11:33:00,
2013-05-16 07:38:00,51.1,44.5,29.91,SW,225,0.0,0.0,78,0.00,,FEW100,0.00,VWS V14.01,2013-05-16 11:38:00,
2013-05-16 07:43:00,52.2,45.5,29.91,SW,225,0.0,0.0,78,0.00,,FEW100,0.00,VWS V14.01,2013-05-16 11:43:00,
2013-05-16 07:48:00,53.2,46.6,29.91,West,270,3.9,6.7,78,0.00,,FEW100,0.00,VWS V14.01,2013-05-16 11:48:00,
2013-05-16 07:53:00,54.9,47.3,29.91,WSW,248,0.0,0.0,76,0.00,,FEW100,0.00,VWS V14.01,2013-05-16 11:53:00,
2013-05-16 07:58:00,55.9,47.8,29.91,West,270,3.4,3.4,74,0.00,,FEW100,0.00,VWS V14.01,2013-05-16 11:58:00,
2013-05-16 08:03:00,56.7,48.1,29.91,West,270,0.0,0.0,73,0.00,,FEW100,0.00,VWS V14.01,2013-05-16 12:03:00,
2013-05-16 08:08:00,57.4,48.6,29.91,West,270,0.0,0.0,72,0.00,,FEW100,0.00,VWS V14.01,2013-05-16 12:08:00,
2013-05-16 08:13:00,57.9,49.1,29.91,West,270,6.2,6.2,72,0.00,,FEW100,0.00,VWS V14.01,2013-05-16 12:13:00,
2013-05-16 08:18:00,58.5,48.7,29.91,West,270,0.0,0.0,70,0.00,,FEW100,0.00,VWS V14.01,2013-05-16 12:18:00,
2013-05-16 08:23:00,59.4,49.4,29.88,West,270,0.0,2.4,70,0.00,,FEW100,0.00,VWS V14.01,2013-05-16 12:23:00,
2013-05-16 08:28:00,59.7,49.5,29.88,West,270,0.0,1.9,69,0.00,,FEW100,0.00,VWS V14.01,2013-05-16 12:28:00,
2013-05-16 08:33:00,60.3,49.7,29.88,SW,225,3.9,4.8,68,0.00,,FEW100,0.00,VWS V14.01,2013-05-16 12:33:00,
2013-05-16 08:38:00,61.0,50.2,29.88,NW,315,3.9,5.8,68,0.00,,FEW100,0.00,VWS V14.01,2013-05-16 12:38:00,
2013-05-16 08:43:00,61.5,50.5,29.88,NW,315,7.3,7.3,67,0.00,,FEW100,0.00,VWS V14.01,2013-05-16 12:43:00,
2013-05-16 08:48:00,62.1,51.2,29.88,NW,315,2.2,2.4,68,0.00,,FEW100,0.00,VWS V14.01,2013-05-16 12:48:00,
2013-05-16 08:53:00,62.6,51.5,29.88,NW,315,0.0,0.0,67,0.00,,FEW100,0.00,VWS V14.01,2013-05-16 12:53:00,
2013-05-16 08:58:00,63.1,52.0,29.88,NW,315,0.0,0.0,67,0.00,,FEW100,0.00,VWS V14.01,2013-05-16 12:58:00,
2013-05-16 09:03:00,63.7,52.5,29.88,NW,315,0.0,3.4,67,0.00,,FEW100,0.00,VWS V14.01,2013-05-16 13:03:00,
2013-05-16 09:08:00,64.4,52.4,29.88,South,180,3.4,4.8,65,0.00,,FEW100,0.00,VWS V14.01,2013-05-16 13:08:00,
2013-05-16 09:13:00,64.8,52.7,29.88,South,180,0.0,4.8,65,0.00,,FEW100,0.00,VWS V14.01,2013-05-16 13:13:00,
2013-05-16 09:18:00,65.1,53.1,29.88,NE,45,3.4,3.4,65,0.00,,FEW100,0.00,VWS V14.01,2013-05-16 13:18:00,
2013-05-16 09:23:00,65.7,53.6,29.91,WNW,292,3.4,5.3,65,0.00,,FEW100,0.00,VWS V14.01,2013-05-16 13:23:00,
2013-05-16 09:28:00,66.0,53.9,29.91,West,270,7.3,7.3,65,0.00,,FEW100,0.00,VWS V14.01,2013-05-16 13:28:00,
2013-05-16 09:33:00,66.4,53.6,29.91,SSE,158,3.9,3.9,64,0.00,,FEW100,0.00,VWS V14.01,2013-05-16 13:33:00,
2013-05-16 09:38:00,67.1,54.3,29.91,NW,315,6.7,6.7,64,0.00,,FEW100,0.00,VWS V14.01,2013-05-16 13:38:00,
2013-05-16 09:43:00,67.3,54.5,29.91,NE,45,7.8,7.8,64,0.00,,FEW100,0.00,VWS V14.01,2013-05-16 13:43:00,
2013-05-16 09:48:00,67.6,54.8,29.91,NE,45,7.8,7.8,64,0.00,,FEW100,0.00,VWS V14.01,2013-05-16 13:48:00,
2013-05-16 09:53:00,67.8,55.0,29.91,NE,45,7.8,7.8,64,0.00,,FEW100,0.00,VWS V14.01,2013-05-16 13:53:00,
2013-05-16 09:58:00,68.0,55.2,29.91,NE,45,7.8,7.8,64,0.00,,FEW100,0.00,VWS V14.01,2013-05-16 13:58:00,
2013-05-16 10:03:00,68.2,55.3,29.91,South,180,0.0,0.0,64,0.00,,FEW100,0.00,VWS V14.01,2013-05-16 14:03:00,
2013-05-16 10:08:00,68.2,55.3,29.94,South,180,0.0,0.0,64,0.00,,FEW100,0.00,VWS V14.01,2013-05-16 14:08:00,
2013-05-16 10:13:00,68.4,55.5,29.94,NW,315,2.8,2.8,64,0.00,,FEW100,0.00,VWS V14.01,2013-05-16 14:13:00,
2013-05-16 10:18:00,68.5,55.7,29.94,WNW,292,5.0,5.0,64,0.00,,FEW100,0.00,VWS V14.01,2013-05-16 14:18:00,
2013-05-16 10:23:00,68.7,55.8,29.94,WNW,292,7.8,7.8,64,0.00,,FEW100,0.00,VWS V14.01,2013-05-16 14:23:00,
2013-05-16 10:28:00,68.7,55.8,29.94,NW,315,5.6,5.6,64,0.00,,FEW100,0.00,VWS V14.01,2013-05-16 14:28:00,
2013-05-16 10:33:00,68.9,56.0,29.94,NW,315,6.2,7.7,64,0.00,,FEW100,0.00,VWS V14.01,2013-05-16 14:33:00,
2013-05-16 10:38:00,69.1,56.2,29.94,NW,315,6.2,6.2,64,0.00,,FEW100,0.00,VWS V14.01,2013-05-16 14:38:00,
2013-05-16 10:43:00,69.4,56.5,29.94,NW,315,6.2,6.2,64,0.00,,FEW100,0.00,VWS V14.01,2013-05-16 14:43:00,
2013-05-16 10:48:00,69.4,56.5,29.94,NW,315,6.2,6.2,64,0.00,,FEW100,0.00,VWS V14.01,2013-05-16 14:48:00,
2013-05-16 10:53:00,69.4,56.5,29.94,NW,315,6.2,6.2,64,0.00,,FEW100,0.00,VWS V14.01,2013-05-16 14:53:00,
2013-05-16 10:58:00,69.6,56.7,29.94,NW,315,6.2,6.2,64,0.00,,FEW200,0.00,VWS V14.01,2013-05-16 14:58:00,
2013-05-16 11:03:00,70.0,57.0,29.94,NE,45,6.2,6.2,64,0.00,,FEW200,0.00,VWS V14.01,2013-05-16 15:03:00,
2013-05-16 11:08:00,70.0,57.0,29.94,NE,45,8.4,12.0,64,0.00,,FEW200,0.00,VWS V14.01,2013-05-16 15:08:00,
2013-05-16 11:13:00,70.2,57.2,29.94,NW,315,19.6,19.6,64,0.00,,FEW200,0.00,VWS V14.01,2013-05-16 15:13:00,
2013-05-16 11:18:00,70.3,57.4,29.94,NW,315,19.6,19.6,64,0.00,,FEW200,0.00,VWS V14.01,2013-05-16 15:18:00,
2013-05-16 11:23:00,70.7,57.7,29.94,NW,315,19.6,19.6,64,0.00,,FEW200,0.00,VWS V14.01,2013-05-16 15:23:00,
2013-05-16 11:28:00,71.1,58.1,29.94,WNW,292,2.8,6.7,64,0.00,,FEW200,0.00,VWS V14.01,2013-05-16 15:28:00,
2013-05-16 11:33:00,71.2,58.2,29.94,WNW,292,3.9,3.9,64,0.00,,FEW200,0.00,VWS V14.01,2013-05-16 15:33:00,
2013-05-16 11:38:00,71.4,57.7,29.94,West,270,8.4,8.4,62,0.00,,FEW200,0.00,VWS V14.01,2013-05-16 15:38:00,
2013-05-16 11:44:00,71.4,57.7,29.94,West,270,8.4,8.4,62,0.00,,FEW200,0.00,VWS V14.01,2013-05-16 15:44:00,
2013-05-16 11:49:00,71.6,57.9,29.94,NW,315,5.0,5.0,62,0.00,,FEW200,0.00,VWS V14.01,2013-05-16 15:49:00,
2013-05-16 11:54:00,72.0,58.2,29.94,NW,315,5.0,5.0,62,0.00,,FEW200,0.00,VWS V14.01,2013-05-16 15:54:00,
2013-05-16 11:59:00,72.1,58.4,29.94,NW,315,5.0,5.0,62,0.00,,FEW200,0.00,VWS V14.01,2013-05-16 15:59:00,
2013-05-16 12:04:00,72.5,58.8,29.94,WNW,292,7.3,7.3,62,0.00,,FEW200,0.00,VWS V14.01,2013-05-16 16:04:00,
2013-05-16 12:09:00,72.5,58.8,29.94,NW,315,7.3,7.3,62,0.00,,FEW200,0.00,VWS V14.01,2013-05-16 16:09:00,
2013-05-16 12:14:00,72.7,58.9,29.94,NE,45,3.4,3.4,62,0.00,,FEW200,0.00,VWS V14.01,2013-05-16 16:14:00,
2013-05-16 12:19:00,72.9,59.1,29.94,WNW,292,7.8,7.8,62,0.00,,FEW200,0.00,VWS V14.01,2013-05-16 16:19:00,
2013-05-16 12:24:00,73.0,59.3,29.94,NE,45,9.5,9.5,62,0.00,,FEW200,0.00,VWS V14.01,2013-05-16 16:24:00,
2013-05-16 12:29:00,73.4,59.4,29.94,NE,45,6.2,6.2,62,0.00,,FEW200,0.00,VWS V14.01,2013-05-16 16:29:00,
2013-05-16 12:34:00,73.4,59.4,29.94,NW,315,7.3,7.3,62,0.00,,FEW200,0.00,VWS V14.01,2013-05-16 16:34:00,
2013-05-16 12:39:00,73.6,59.5,29.94,NW,315,2.8,5.3,62,0.00,,FEW200,0.00,VWS V14.01,2013-05-16 16:39:00,
2013-05-16 12:44:00,73.8,59.7,29.94,NE,45,0.0,0.0,62,0.00,,FEW200,0.00,VWS V14.01,2013-05-16 16:44:00,
2013-05-16 12:49:00,73.8,59.7,29.94,NW,315,3.9,7.7,62,0.00,,FEW200,0.00,VWS V14.01,2013-05-16 16:49:00,
2013-05-16 12:54:00,73.6,59.5,29.94,NE,45,6.7,6.7,62,0.00,,FEW200,0.00,VWS V14.01,2013-05-16 16:54:00,
2013-05-16 12:59:00,73.6,59.5,29.94,NW,315,14.0,14.0,62,0.00,,FEW200,0.00,VWS V14.01,2013-05-16 16:59:00,
2013-05-16 13:04:00,73.8,59.7,29.94,NW,315,10.6,10.6,62,0.00,,FEW200,0.00,VWS V14.01,2013-05-16 17:04:00,
2013-05-16 13:09:00,74.1,60.0,29.94,ENE,68,6.2,6.2,62,0.00,,FEW200,0.00,VWS V14.01,2013-05-16 17:09:00,
2013-05-16 13:14:00,74.3,60.2,29.94,ENE,68,6.2,6.2,62,0.00,,FEW200,0.00,VWS V14.01,2013-05-16 17:14:00,
2013-05-16 13:19:00,74.5,60.4,29.94,ENE,68,7.8,7.8,62,0.00,,FEW200,0.00,VWS V14.01,2013-05-16 17:19:00,
2013-05-16 13:24:00,75.2,61.1,29.94,NW,315,5.0,5.0,62,0.00,,FEW200,0.00,VWS V14.01,2013-05-16 17:24:00,
2013-05-16 13:29:00,75.6,61.4,29.94,WNW,292,8.4,8.7,62,0.00,,FEW200,0.00,VWS V14.01,2013-05-16 17:29:00,
2013-05-16 13:34:00,75.7,61.6,29.94,NE,45,5.0,12.0,62,0.00,,FEW200,0.00,VWS V14.01,2013-05-16 17:34:00,
2013-05-16 13:39:00,75.9,61.8,29.94,West,270,6.7,9.1,62,0.00,,FEW200,0.00,VWS V14.01,2013-05-16 17:39:00,
2013-05-16 13:44:00,76.3,62.1,29.94,WNW,292,13.4,13.4,62,0.00,,FEW200,0.00,VWS V14.01,2013-05-16 17:44:00,
2013-05-16 13:49:00,76.3,62.1,29.94,NE,45,9.5,9.5,62,0.00,,FEW200,0.00,VWS V14.01,2013-05-16 17:49:00,
2013-05-16 13:54:00,76.6,62.4,29.94,West,270,10.1,10.1,62,0.00,,FEW200,0.00,VWS V14.01,2013-05-16 17:54:00,
2013-05-16 13:59:00,77.0,62.8,29.94,NE,45,8.4,8.4,62,0.00,,FEW200,0.00,VWS V14.01,2013-05-16 17:59:00,
2013-05-16 14:04:00,77.0,62.8,29.94,WNW,292,2.2,6.3,62,0.00,,SCT200,0.00,VWS V14.01,2013-05-16 18:04:00,
2013-05-16 14:09:00,77.0,62.8,29.94,NE,45,6.2,6.7,62,0.00,,SCT200,0.00,VWS V14.01,2013-05-16 18:09:00,
2013-05-16 14:14:00,77.2,62.9,29.94,SSE,158,3.4,4.8,62,0.00,,SCT200,0.00,VWS V14.01,2013-05-16 18:14:00,
2013-05-16 14:19:00,77.5,63.3,29.94,West,270,6.2,7.2,62,0.00,,SCT200,0.00,VWS V14.01,2013-05-16 18:19:00,
2013-05-16 14:24:00,77.4,63.1,29.94,NW,315,7.8,7.8,62,0.00,,SCT200,0.00,VWS V14.01,2013-05-16 18:24:00,
2013-05-16 14:29:00,77.0,62.8,29.94,NW,315,11.7,14.0,62,0.00,,SCT200,0.00,VWS V14.01,2013-05-16 18:29:00,
2013-05-16 14:34:00,77.0,62.8,29.94,WNW,292,0.0,3.4,62,0.00,,SCT200,0.00,VWS V14.01,2013-05-16 18:34:00,
2013-05-16 14:39:00,77.4,63.1,29.94,NW,315,5.0,9.1,62,0.00,,SCT200,0.00,VWS V14.01,2013-05-16 18:39:00,
2013-05-16 14:44:00,77.7,63.4,29.94,West,270,2.8,3.4,62,0.00,,SCT200,0.00,VWS V14.01,2013-05-16 18:44:00,
2013-05-16 14:49:00,77.4,63.1,29.94,NE,45,7.3,9.1,62,0.00,,SCT200,0.00,VWS V14.01,2013-05-16 18:49:00,
2013-05-16 14:54:00,77.4,63.1,29.94,NE,45,9.0,9.0,62,0.00,,SCT200,0.00,VWS V14.01,2013-05-16 18:54:00,
2013-05-16 14:59:00,77.4,63.1,29.94,WNW,292,6.2,7.2,62,0.00,,,0.00,VWS V14.01,2013-05-16 18:59:00,
2013-05-16 15:04:00,77.9,63.6,29.94,WNW,292,6.7,6.7,62,0.00,,,0.00,VWS V14.01,2013-05-16 19:04:00,
2013-05-16 15:09:00,78.1,63.8,29.94,NE,45,9.0,9.0,62,0.00,,,0.00,VWS V14.01,2013-05-16 19:09:00,
2013-05-16 15:14:00,77.4,63.1,29.94,NE,45,7.8,12.5,62,0.00,,,0.00,VWS V14.01,2013-05-16 19:14:00,
2013-05-16 15:19:00,77.7,63.4,29.94,NW,315,11.2,11.2,62,0.00,,,0.00,VWS V14.01,2013-05-16 19:19:00,
2013-05-16 15:24:00,78.1,63.8,29.94,WNW,292,6.2,9.1,62,0.00,,,0.00,VWS V14.01,2013-05-16 19:24:00,
2013-05-16 15:29:00,77.7,63.4,29.94,NW,315,6.7,6.7,62,0.00,,,0.00,VWS V14.01,2013-05-16 19:29:00,
2013-05-16 15:34:00,77.5,63.3,29.94,NW,315,6.2,6.2,62,0.00,,,0.00,VWS V14.01,2013-05-16 19:34:00,
2013-05-16 15:39:00,77.4,63.1,29.94,NW,315,14.5,14.5,62,0.00,,,0.00,VWS V14.01,2013-05-16 19:39:00,
2013-05-16 15:44:00,77.5,63.3,29.94,WNW,292,5.0,6.3,62,0.00,,,0.00,VWS V14.01,2013-05-16 19:44:00,
2013-05-16 15:49:00,77.5,63.3,29.94,NE,45,6.2,6.2,62,0.00,,,0.00,VWS V14.01,2013-05-16 19:49:00,
2013-05-16 15:54:00,77.7,63.4,29.94,NE,45,6.2,6.2,62,0.00,,,0.00,VWS V14.01,2013-05-16 19:54:00,
2013-05-16 15:59:00,78.3,64.0,29.94,NE,45,7.8,7.8,62,0.00,,SCT220,0.00,VWS V14.01,2013-05-16 19:59:00,
2013-05-16 16:04:00,78.3,64.0,29.94,NW,315,7.8,7.8,62,0.00,,SCT220,0.00,VWS V14.01,2013-05-16 20:04:00,
2013-05-16 16:09:00,78.3,64.0,29.94,SW,225,0.0,7.2,62,0.00,,SCT220,0.00,VWS V14.01,2013-05-16 20:09:00,
2013-05-16 16:14:00,77.7,63.4,29.94,SW,225,0.0,0.0,62,0.00,,SCT220,0.00,VWS V14.01,2013-05-16 20:14:00,
2013-05-16 16:19:00,77.9,63.6,29.94,SW,225,0.0,0.0,62,0.00,,SCT220,0.00,VWS V14.01,2013-05-16 20:19:00,
2013-05-16 16:24:00,77.4,63.1,29.94,West,270,6.2,6.2,62,0.00,,SCT220,0.00,VWS V14.01,2013-05-16 20:24:00,
2013-05-16 16:29:00,77.4,63.1,29.94,West,270,6.2,6.2,62,0.00,,SCT220,0.00,VWS V14.01,2013-05-16 20:29:00,
2013-05-16 16:34:00,77.4,63.1,29.94,SW,225,3.4,3.4,62,0.00,,SCT220,0.00,VWS V14.01,2013-05-16 20:34:00,
2013-05-16 16:39:00,77.4,63.1,29.94,SW,225,3.4,3.4,62,0.00,,SCT220,0.00,VWS V14.01,2013-05-16 20:39:00,
2013-05-16 16:44:00,76.8,62.6,29.94,WNW,292,6.2,6.2,62,0.00,,SCT220,0.00,VWS V14.01,2013-05-16 20:44:00,
2013-05-16 16:49:00,76.6,62.4,29.94,WNW,292,6.2,6.2,62,0.00,,SCT220,0.00,VWS V14.01,2013-05-16 20:49:00,
2013-05-16 16:54:00,76.8,62.6,29.94,West,270,5.6,5.6,62,0.00,,SCT220,0.00,VWS V14.01,2013-05-16 20:54:00,
2013-05-16 16:59:00,76.3,62.1,29.94,West,270,5.6,5.6,62,0.00,,SCT090,0.00,VWS V14.01,2013-05-16 20:59:00,
2013-05-16 17:04:00,75.9,61.8,29.94,NE,45,0.0,0.0,62,0.00,,SCT090,0.00,VWS V14.01,2013-05-16 21:04:00,
2013-05-16 17:09:00,75.6,61.4,29.94,NW,315,0.0,4.3,62,0.00,,SCT090,0.00,VWS V14.01,2013-05-16 21:09:00,
2013-05-16 17:14:00,75.2,61.1,29.94,South,180,3.9,3.9,62,0.00,,SCT090,0.00,VWS V14.01,2013-05-16 21:14:00,
2013-05-16 17:19:00,75.2,61.1,29.94,NW,315,0.0,0.0,62,0.00,,SCT090,0.00,VWS V14.01,2013-05-16 21:19:00,
2013-05-16 17:24:00,75.7,61.6,29.94,NE,45,0.0,0.0,62,0.00,,SCT090,0.00,VWS V14.01,2013-05-16 21:24:00,
2013-05-16 17:29:00,76.3,62.1,29.94,NE,45,7.3,7.3,62,0.00,,SCT090,0.00,VWS V14.01,2013-05-16 21:29:00,
2013-05-16 17:34:00,77.0,62.8,29.94,West,270,2.8,4.8,62,0.00,,SCT090,0.00,VWS V14.01,2013-05-16 21:34:00,
2013-05-16 17:39:00,77.5,63.3,29.94,West,270,3.4,5.3,62,0.00,,SCT090,0.00,VWS V14.01,2013-05-16 21:39:00,
2013-05-16 17:44:00,77.4,63.1,29.94,WNW,292,8.4,8.4,62,0.00,,SCT090,0.00,VWS V14.01,2013-05-16 21:44:00,
2013-05-16 17:49:00,76.8,62.6,29.94,NE,45,0.0,2.4,62,0.00,,SCT090,0.00,VWS V14.01,2013-05-16 21:49:00,
2013-05-16 17:54:00,75.9,61.8,29.94,ESE,112,0.0,2.4,62,0.00,,SCT090,0.00,VWS V14.01,2013-05-16 21:54:00,
2013-05-16 17:59:00,74.8,60.7,29.94,SE,135,3.4,3.4,62,0.00,,SCT090,0.00,VWS V14.01,2013-05-16 21:59:00,
2013-05-16 18:04:00,74.1,60.0,29.94,ESE,112,3.4,3.4,62,0.00,,SCT085,0.00,VWS V14.01,2013-05-16 22:04:00,
2013-05-16 18:09:00,73.2,59.4,29.97,NE,45,3.9,3.9,62,0.00,,SCT085,0.00,VWS V14.01,2013-05-16 22:09:00,
2013-05-16 18:14:00,72.7,58.9,29.97,East,90,0.0,0.0,62,0.00,,SCT085,0.00,VWS V14.01,2013-05-16 22:14:00,
2013-05-16 18:19:00,72.5,58.8,29.97,East,90,0.0,0.0,62,0.00,,SCT085,0.00,VWS V14.01,2013-05-16 22:19:00,
2013-05-16 18:24:00,72.1,58.4,29.97,ENE,68,0.0,0.0,62,0.00,,SCT085,0.00,VWS V14.01,2013-05-16 22:24:00,
2013-05-16 18:29:00,71.6,57.9,29.97,ENE,68,0.0,0.0,62,0.00,,SCT085,0.00,VWS V14.01,2013-05-16 22:29:00,
2013-05-16 18:34:00,71.1,57.4,29.97,ENE,68,0.0,0.0,62,0.00,,SCT085,0.00,VWS V14.01,2013-05-16 22:34:00,
2013-05-16 18:39:00,70.3,56.7,29.97,ENE,68,2.2,5.3,62,0.00,,SCT085,0.00,VWS V14.01,2013-05-16 22:39:00,
2013-05-16 18:44:00,69.8,56.2,29.97,NE,45,3.4,3.4,62,0.00,,SCT085,0.00,VWS V14.01,2013-05-16 22:44:00,
2013-05-16 18:49:00,69.3,55.9,29.97,NE,45,7.3,7.3,62,0.00,,SCT085,0.00,VWS V14.01,2013-05-16 22:49:00,
2013-05-16 18:54:00,68.9,55.6,29.97,NE,45,7.3,7.3,62,0.00,,SCT085,0.00,VWS V14.01,2013-05-16 22:54:00,
2013-05-16 18:59:00,68.7,55.4,29.97,East,90,5.6,5.6,62,0.00,,SCT085,0.00,VWS V14.01,2013-05-16 22:59:00,
2013-05-16 19:04:00,68.2,54.9,29.97,NE,45,6.7,6.7,62,0.00,,FEW085,0.00,VWS V14.01,2013-05-16 23:04:00,
2013-05-16 19:09:00,67.3,54.0,29.97,ENE,68,2.2,6.7,62,0.00,,FEW085,0.00,VWS V14.01,2013-05-16 23:09:00,
2013-05-16 19:14:00,66.7,53.5,29.97,ESE,112,0.0,4.8,62,0.00,,FEW085,0.00,VWS V14.01,2013-05-16 23:14:00,
2013-05-16 19:19:00,66.4,53.2,29.97,ESE,112,2.8,2.8,62,0.00,,FEW085,0.00,VWS V14.01,2013-05-16 23:19:00,
2013-05-16 19:24:00,66.0,52.9,29.97,ESE,112,2.8,2.8,62,0.00,,FEW085,0.00,VWS V14.01,2013-05-16 23:24:00,
2013-05-16 19:29:00,65.7,52.5,29.97,ESE,112,2.8,2.8,62,0.00,,FEW085,0.00,VWS V14.01,2013-05-16 23:29:00,
2013-05-16 19:34:00,65.5,52.3,29.97,East,90,0.0,0.0,62,0.00,,FEW085,0.00,VWS V14.01,2013-05-16 23:34:00,
2013-05-16 19:39:00,64.8,51.7,29.97,ENE,68,2.8,2.8,62,0.00,,FEW085,0.00,VWS V14.01,2013-05-16 23:39:00,
2013-05-16 19:44:00,64.4,51.3,29.97,ESE,112,0.0,0.0,62,0.00,,FEW085,0.00,VWS V14.01,2013-05-16 23:44:00,
2013-05-16 19:49:00,63.9,51.0,29.97,NW,315,2.2,2.2,63,0.00,,FEW085,0.00,VWS V14.01,2013-05-16 23:49:00,
2013-05-16 19:54:00,63.1,50.3,29.97,ENE,68,7.3,7.3,63,0.00,,FEW085,0.00,VWS V14.01,2013-05-16 23:54:00,
2013-05-16 19:59:00,62.4,49.7,29.97,ESE,112,5.0,5.0,63,0.00,,FEW085,0.00,VWS V14.01,2013-05-16 23:59:00,
2013-05-16 20:04:00,61.9,49.2,29.97,NE,45,6.7,6.7,63,0.00,,SCT220,0.00,VWS V14.01,2013-05-17 00:04:00,
2013-05-16 20:09:00,61.3,48.7,29.97,NE,45,6.7,6.7,63,0.00,,SCT220,0.00,VWS V14.01,2013-05-17 00:09:00,
2013-05-16 20:14:00,60.8,48.1,29.97,NW,315,0.0,0.0,63,0.00,,SCT220,0.00,VWS V14.01,2013-05-17 00:14:00,
2013-05-16 20:19:00,60.4,48.0,29.97,ESE,112,0.0,0.0,64,0.00,,SCT220,0.00,VWS V14.01,2013-05-17 00:19:00,
2013-05-16 20:24:00,59.7,47.3,30.00,NW,315,0.0,0.0,64,0.00,,SCT220,0.00,VWS V14.01,2013-05-17 00:24:00,
2013-05-16 20:29:00,59.5,47.2,30.00,NE,45,2.2,2.4,64,0.00,,SCT220,0.00,VWS V14.01,2013-05-17 00:29:00,
2013-05-16 20:34:00,59.0,46.7,30.00,ENE,68,3.4,3.4,64,0.00,,SCT220,0.00,VWS V14.01,2013-05-17 00:34:00,
2013-05-16 20:39:00,58.6,46.3,30.00,SSE,158,0.0,0.0,64,0.00,,SCT220,0.00,VWS V14.01,2013-05-17 00:39:00,
2013-05-16 20:44:00,58.3,46.0,30.00,SSE,158,0.0,0.0,64,0.00,,SCT220,0.00,VWS V14.01,2013-05-17 00:44:00,
2013-05-16 20:49:00,57.9,45.6,30.00,NE,45,6.2,6.2,64,0.00,,SCT220,0.00,VWS V14.01,2013-05-17 00:49:00,
2013-05-16 20:54:00,57.6,45.3,30.03,West,270,0.0,0.0,64,0.00,,SCT220,0.00,VWS V14.01,2013-05-17 00:54:00,
2013-05-16 20:59:00,57.2,44.9,30.03,West,270,0.0,0.0,64,0.00,,SCT220,0.00,VWS V14.01,2013-05-17 00:59:00,
2013-05-16 21:04:00,57.0,44.8,30.03,West,270,0.0,0.0,64,0.00,,SCT220,0.00,VWS V14.01,2013-05-17 01:04:00,
2013-05-16 21:09:00,56.8,44.6,30.03,West,270,0.0,0.0,64,0.00,,SCT220,0.00,VWS V14.01,2013-05-17 01:09:00,
2013-05-16 21:14:00,56.7,44.4,30.03,West,270,0.0,0.0,64,0.00,,SCT220,0.00,VWS V14.01,2013-05-17 01:14:00,
2013-05-16 21:19:00,56.5,44.3,30.03,West,270,0.0,0.0,64,0.00,,SCT220,0.00,VWS V14.01,2013-05-17 01:19:00,
2013-05-16 21:24:00,56.3,44.1,30.03,West,270,0.0,0.0,64,0.00,,SCT220,0.00,VWS V14.01,2013-05-17 01:24:00,
2013-05-16 21:29:00,55.9,43.8,30.03,West,270,0.0,0.0,64,0.00,,SCT220,0.00,VWS V14.01,2013-05-17 01:29:00,
2013-05-16 21:34:00,55.8,43.6,30.03,West,270,0.0,0.0,64,0.00,,SCT220,0.00,VWS V14.01,2013-05-17 01:34:00,
2013-05-16 21:39:00,55.6,43.4,30.03,ESE,112,0.0,0.0,64,0.00,,SCT220,0.00,VWS V14.01,2013-05-17 01:39:00,
2013-05-16 21:44:00,55.4,43.8,30.03,ESE,112,0.0,0.0,65,0.00,,SCT220,0.00,VWS V14.01,2013-05-17 01:44:00,
2013-05-16 21:49:00,55.2,43.7,30.03,ESE,112,0.0,0.0,65,0.00,,SCT220,0.00,VWS V14.01,2013-05-17 01:49:00,
2013-05-16 21:54:00,54.9,43.3,30.03,NE,45,3.4,3.4,65,0.00,,SCT220,0.00,VWS V14.01,2013-05-17 01:54:00,
2013-05-16 21:59:00,54.7,43.2,30.03,NE,45,3.4,3.4,65,0.00,,SCT220,0.00,VWS V14.01,2013-05-17 01:59:00,
2013-05-16 22:04:00,54.5,43.0,30.03,NE,45,3.4,3.4,65,0.00,,SCT220,0.00,VWS V14.01,2013-05-17 02:04:00,
2013-05-16 22:09:00,54.1,42.7,30.06,NE,45,3.4,3.4,65,0.00,,SCT220,0.00,VWS V14.01,2013-05-17 02:09:00,
2013-05-16 22:14:00,54.0,42.5,30.06,NE,45,2.8,2.8,65,0.00,,SCT220,0.00,VWS V14.01,2013-05-17 02:14:00,
2013-05-16 22:19:00,53.8,42.3,30.06,NE,45,2.8,2.8,65,0.00,,SCT220,0.00,VWS V14.01,2013-05-17 02:19:00,
2013-05-16 22:24:00,53.6,42.1,30.06,East,90,0.0,0.0,65,0.00,,SCT220,0.00,VWS V14.01,2013-05-17 02:24:00,
2013-05-16 22:29:00,53.4,42.2,30.06,NE,45,3.4,3.4,66,0.00,,SCT220,0.00,VWS V14.01,2013-05-17 02:29:00,
2013-05-16 22:34:00,53.2,42.0,30.06,East,90,0.0,0.0,66,0.00,,SCT220,0.00,VWS V14.01,2013-05-17 02:34:00,
2013-05-16 22:39:00,53.1,41.8,30.06,NE,45,3.9,3.9,66,0.00,,SCT220,0.00,VWS V14.01,2013-05-17 02:39:00,
2013-05-16 22:44:00,53.1,41.8,30.06,NE,45,3.9,3.9,66,0.00,,SCT220,0.00,VWS V14.01,2013-05-17 02:44:00,
2013-05-16 22:49:00,52.7,41.5,30.06,NE,45,3.9,3.9,66,0.00,,SCT220,0.00,VWS V14.01,2013-05-17 02:49:00,
2013-05-16 22:54:00,52.7,41.5,30.06,NE,45,3.9,3.9,66,0.00,,SCT220,0.00,VWS V14.01,2013-05-17 02:54:00,
2013-05-16 22:59:00,52.5,41.3,30.06,NE,45,3.9,3.9,66,0.00,,SCT220,0.00,VWS V14.01,2013-05-17 02:59:00,
2013-05-16 23:04:00,52.3,41.1,30.06,NE,45,3.9,3.9,66,0.00,,FEW220,0.00,VWS V14.01,2013-05-17 03:04:00,
2013-05-16 23:09:00,52.2,41.0,30.06,NE,45,3.9,3.9,66,0.00,,FEW220,0.00,VWS V14.01,2013-05-17 03:09:00,
2013-05-16 23:14:00,51.8,40.6,30.06,NE,45,3.9,3.9,66,0.00,,FEW220,0.00,VWS V14.01,2013-05-17 03:14:00,
2013-05-16 23:19:00,51.6,40.5,30.06,NE,45,3.9,3.9,66,0.00,,FEW220,0.00,VWS V14.01,2013-05-17 03:19:00,
2013-05-16 23:24:00,51.4,40.9,30.06,NE,45,3.9,3.9,67,0.00,,FEW220,0.00,VWS V14.01,2013-05-17 03:24:00,
2013-05-16 23:29:00,51.3,40.7,30.06,NE,45,3.9,3.9,67,0.00,,FEW220,0.00,VWS V14.01,2013-05-17 03:29:00,
2013-05-16 23:34:00,50.9,40.3,30.06,NE,45,3.9,3.9,67,0.00,,FEW220,0.00,VWS V14.01,2013-05-17 03:34:00,
2013-05-16 23:39:00,50.7,40.2,30.09,NE,45,3.9,3.9,67,0.00,,FEW220,0.00,VWS V14.01,2013-05-17 03:39:00,
2013-05-16 23:44:00,50.5,40.4,30.09,NE,45,3.9,3.9,68,0.00,,FEW220,0.00,VWS V14.01,2013-05-17 03:44:00,
2013-05-16 23:49:00,50.5,40.4,30.09,NE,45,3.9,3.9,68,0.00,,FEW220,0.00,VWS V14.01,2013-05-17 03:49:00,
2013-05-16 23:54:00,50.4,40.2,30.09,NE,45,3.9,3.9,68,0.00,,FEW220,0.00,VWS V14.01,2013-05-17 03:54:00,
2013-05-16 23:59:00,50.2,40.0,30.09,NE,45,3.9,3.9,68,0.00,,FEW220,0.00,VWS V14.01,2013-05-17 03:59:00,